Saint Charles, IL

2:15 AM CST on February 24, 2017 (GMT -0600)
Du Page

Weather History for KDPA - January, 2014

Change the Weather History Date:

Tuesday, January 7, 2014

  Actual Average Record
Temperature  
Mean Temperature -5 °F 23 °F  
Max Temperature 2 °F 31 °F 65 °F (2008)
Min Temperature -12 °F 15 °F -15 °F (1999)
Degree Days  
Heating Degree Days 70 42  
Month to date heating degree days 404 292  
Since 1 July heating degree days 3190 2719  
Cooling Degree Days 0 0  
Month to date cooling degree days 0 0  
Year to date cooling degree days 0 0  
Moisture  
Dew Point -13 °F    
Average Humidity 73    
Maximum Humidity 87    
Minimum Humidity 63    
Precipitation  
Precipitation 0.00 in 0.05 in 0.06 in (2007)
Month to date precipitation 0.00 0.35  
Year to date precipitation 0.00 0.35  
Sea Level Pressure  
Sea Level Pressure 30.32 in    
Wind  
Wind Speed 8 mph (SW)    
Max Wind Speed 17 mph    
Max Gust Speed 21 mph    
Visibility 10 miles    
Events      
T = Trace of Precipitation, MM = Missing Value Source: NWS Daily Summary

Daily Weather History Graph

Daily Weather History Graph

Search for Another Location

Airport or City:

Trip Planner

Search our weather history database for the weather conditions in past years. The results will help you decide how hot, cold, wet, or windy it might be!

Date:

Astronomy

Jan. 07, 2014 Rise Set
Actual Time 7:20 AM CST 4:38 PM CST
Civil Twilight 6:49 AM CST 5:09 PM CST
Nautical Twilight 6:14 AM CST 5:44 PM CST
Astronomical Twilight 5:40 AM CST 6:18 PM CST
Moon 11:02 AM CST (1/7) No Moon Set
Length of Visible Light 10h 20m
Length of Day
9h 17m
Waxing Crescent, 46% of the Moon is Illuminated
Jan 7
Waxing Crescent
Jan 7
First Quarter
Jan 15
Full
Jan 23
Last Quarter
Jan 30
New

Hourly Weather History & Observations

Time (CST) Temp. Windchill Dew Point Humidity Pressure Visibility Wind Dir Wind Speed Gust Speed Precip Events Conditions
12:52 AM -11.9 °F -29.9 °F -18.0 °F 74% 30.29 in 10.0 mi West 9.2 mph - N/A   Clear
1:52 AM -11.9 °F -32.0 °F -18.0 °F 74% 30.30 in 10.0 mi West 11.5 mph - N/A   Clear
2:52 AM -11.9 °F -32.0 °F -18.0 °F 74% 30.30 in 10.0 mi WSW 11.5 mph - N/A   Clear
3:52 AM -11.0 °F -32.7 °F -18.0 °F 71% 30.31 in 10.0 mi WSW 13.8 mph - N/A   Clear
4:52 AM -11.0 °F -31.8 °F -18.0 °F 71% 30.31 in 10.0 mi West 12.7 mph - N/A   Clear
5:52 AM -11.0 °F -30.9 °F -18.0 °F 71% 30.31 in 10.0 mi WSW 11.5 mph - N/A   Clear
6:52 AM -11.0 °F -28.8 °F -18.0 °F 71% 30.30 in 10.0 mi WSW 9.2 mph - N/A   Clear
7:52 AM -11.0 °F -30.9 °F -17.0 °F 75% 30.34 in 10.0 mi SW 11.5 mph - N/A   Clear
8:52 AM -9.0 °F -28.4 °F -17.0 °F 68% 30.36 in 10.0 mi WSW 11.5 mph - N/A   Clear
9:52 AM -6.0 °F -25.5 °F -15.0 °F 65% 30.36 in 10.0 mi WSW 12.7 mph - N/A   Mostly Cloudy
10:52 AM -4.0 °F -20.2 °F -13.0 °F 65% 30.35 in 10.0 mi SW 9.2 mph - N/A   Mostly Cloudy
11:52 AM -2.9 °F -21.6 °F -11.9 °F 65% 30.33 in 10.0 mi WSW 12.7 mph - N/A   Overcast
12:52 PM -0.0 °F -18.0 °F -9.9 °F 63% 30.31 in 8.0 mi SW 12.7 mph - N/A   Partly Cloudy
1:52 PM 1.0 °F -14.9 °F -9.0 °F 63% 30.30 in 10.0 mi WSW 10.4 mph - N/A   Clear
2:52 PM 1.9 °F -10.6 °F -8.0 °F 63% 30.29 in 4.0 mi SW 6.9 mph - N/A   Overcast
3:52 PM -0.0 °F -13.0 °F -8.0 °F 69% 30.30 in 10.0 mi South 6.9 mph - N/A   Clear
4:52 PM -0.9 °F -14.1 °F -9.0 °F 69% 30.30 in 10.0 mi South 6.9 mph - N/A   Clear
5:52 PM -2.9 °F -15.0 °F -8.0 °F 79% 30.31 in 10.0 mi South 5.8 mph - N/A   Clear
6:52 PM -2.0 °F -10.1 °F -7.1 °F 79% 30.31 in 10.0 mi South 3.5 mph - N/A   Clear
7:52 PM -2.9 °F - -8.0 °F 79% 30.33 in 10.0 mi Calm Calm - N/A   Scattered Clouds
8:52 PM -6.0 °F -16.9 °F -9.9 °F 83% 30.34 in 10.0 mi South 4.6 mph - N/A   Clear
9:52 PM -5.1 °F -15.8 °F -8.0 °F 87% 30.33 in 10.0 mi South 4.6 mph - N/A   Clear
10:52 PM -5.1 °F - -8.0 °F 87% 30.33 in 10.0 mi Calm Calm - N/A   Clear
11:52 PM -6.0 °F - -9.9 °F 83% 30.32 in 10.0 mi Calm Calm - N/A   Clear